Location: Dürabuch
(48.2640°N, 11.2185°E)
Time: 08:54:11
(UTC+00:00)

Cosmos 1408 - Pass Details

Date: 23 May 2024
Orbit: 363 x 377 km, 82.6° (Epoch: 15 June)

Event Time Altitude Azimuth Distance (km) Brightness Sun altitude
Exits shadow 01:23:15 27° 162° (SSE) 747 3.2 -15.1°
Maximum altitude 01:24:34 53° 96° (E) 458 2.5 -15.0°
Drops below altitude 10° 01:27:27 10° 18° (NNE) 1,365 6.1 -14.7°
Sets 01:29:27 0° 14° (NNE) 2,219 7.4 -14.5°
